This is the latest recevied weather packets stored in our database for station/object EB2BAG-11. If no packets are shown the sender has not sent any weather packets the latest 10 day(s).
| Time | Temp. | Humidity | Pressure | Rain* | Wind** | Luminosity | Snow |
|---|---|---|---|---|---|---|---|
| 1778027771 | 11.67° C | 85% | 1015.2 hPa | - | - | - | - |
| 1778026571 | 11.67° C | 85% | 1015.4 hPa | - | - | - | - |
| 1778025371 | 11.67° C | 88% | 1015.3 hPa | - | - | - | - |
| 1778024171 | 11.67° C | 86% | 1015.5 hPa | - | - | - | - |
| 1778022971 | 11.67° C | 86% | 1015.5 hPa | - | - | - | - |
| 1778021771 | 11.67° C | 86% | 1015.5 hPa | - | - | - | - |
| 1778020571 | 12.22° C | 84% | 1015.5 hPa | - | - | - | - |
| 1778019371 | 11.67° C | 86% | 1015.6 hPa | - | - | - | - |
| 1778018170 | 12.22° C | 85% | 1015.8 hPa | - | - | - | - |
| 1778016970 | 11.67° C | 86% | 1015.8 hPa | - | - | - | - |
| 1778015770 | 12.22° C | 84% | 1015.9 hPa | - | - | - | - |
| 1778014570 | 13.33° C | 84% | 1016 hPa | - | - | - | - |
| 1778013370 | 12.78° C | 84% | 1015.9 hPa | - | - | - | - |
| 1778012170 | 13.33° C | 84% | 1015.9 hPa | - | - | - | - |
| 1778010970 | 13.33° C | 86% | 1015.7 hPa | - | - | - | - |
| 1778009770 | 13.33° C | 86% | 1015.6 hPa | - | - | - | - |
| 1778008570 | 14.44° C | 82% | 1015.3 hPa | - | - | - | - |
| 1778007370 | 15° C | 81% | 1015.2 hPa | - | - | - | - |
| 1778006170 | 14.44° C | 80% | 1015.1 hPa | - | - | - | - |
| 1778004969 | 13.89° C | 80% | 1015 hPa | - | - | - | - |
| 1778003769 | 15° C | 76% | 1015 hPa | - | - | - | - |
| 1778002569 | 15° C | 76% | 1015.1 hPa | - | - | - | - |
| 1778001369 | 15° C | 74% | 1015.2 hPa | - | - | - | - |
| 1778000169 | 15° C | 74% | 1015 hPa | - | - | - | - |
| 1777998969 | 15.56° C | 84% | 1015.1 hPa | - | - | - | - |
* Rain since midnight (hover to see other rain measurements)
** Current wind speed in m/s (hover to see current wind gust speed)